FW5819 Weather Reports


Display with metric or nautical units.
time (UTC)temp
F
wind
direction
speed
MPH
gust
MPH
rain 1hr
in
rain 24hr
in
rain mn
in
humidity
%
barometer
mb
20260510030032 56 237 2.0 7.0 0.00 0.28 0.26 89 1007.0
20260510024534 56 206 1.0 8.0 0.00 0.28 0.26 90 1007.1
20260510023036 56 219 2.0 5.0 0.00 0.28 0.26 91 1006.9
20260510021535 56 242 1.0 6.0 0.00 0.28 0.26 92 1006.8
20260510020034 56 215 3.0 10.0 0.00 0.28 0.26 93 1007.0
20260510014532 55 234 0.0 4.0 0.00 0.28 0.26 94 1006.5
20260510013034 55 0 0.0 4.0 0.00 0.28 0.26 93 1006.1
20260510011534 55 225 0.0 3.0 0.00 0.28 0.26 93 1006.1
20260510010035 55 146 0.0 4.0 0.00 0.28 0.26 93 1006.0
20260510004535 55 151 0.0 3.0 0.00 0.28 0.26 93 1005.9
20260510003035 56 284 1.0 6.0 0.00 0.28 0.26 92 1006.0
20260510001532 56 287 2.0 9.0 0.00 0.28 0.26 92 1005.9
20260510000036 56 254 1.0 8.0 0.00 0.28 0.26 92 1005.9
20260509234541 56 279 1.0 7.0 0.02 0.29 0.26 93 1005.9
20260509233038 56 34 1.0 11.0 0.04 0.29 0.26 93 1005.6
20260509231534 55 213 3.0 14.0 0.26 0.29 0.26 92 1005.6
20260509230037 56 265 3.0 12.0 0.26 0.29 0.26 91 1005.5
20260509224545 56 250 3.0 11.0 0.24 0.32 0.24 90 1006.2
20260509223031 57 248 2.0 20.0 0.22 0.30 0.22 85 1005.6
20260509221533 67 292 11.0 24.0 0.00 0.08 0.00 67 1005.3
20260509220034 69 282 5.0 13.0 0.00 0.08 0.00 60 1003.3
20260509214539 70 312 8.0 18.0 0.00 0.09 0.00 58 1003.2
20260509213035 70 225 6.0 22.0 0.00 0.09 0.00 59 1003.1
20260509211534 71 228 5.0 22.0 0.00 0.09 0.00 57 1003.1
20260509210033 72 223 6.0 19.0 0.00 0.09 0.00 56 1003.1
20260509204537 72 296 7.0 17.0 0.00 0.09 0.00 58 1003.4
20260509203040 72 194 8.0 20.0 0.00 0.09 0.00 57 1003.7
20260509201535 72 256 5.0 18.0 0.00 0.09 0.00 61 1003.9
20260509200035 71 213 8.0 19.0 0.00 0.09 0.00 61 1004.2
20260509194533 70 243 7.0 20.0 0.00 0.09 0.00 62 1004.7
20260509193038 70 229 7.0 17.0 0.00 0.09 0.00 61 1004.6
20260509191535 69 247 7.0 16.0 0.00 0.09 0.00 62 1004.8
20260509190035 70 233 5.0 18.0 0.00 0.09 0.00 63 1004.8
20260509184543 69 213 6.0 15.0 0.00 0.09 0.00 64 1005.0
20260509183039 69 205 9.0 17.0 0.00 0.09 0.00 63 1005.2
20260509181540 69 159 4.0 16.0 0.00 0.09 0.00 64 1005.4
20260509180105 68 222 7.0 17.0 0.00 0.09 0.00 65 1005.4
20260509174533 68 245 7.0 17.0 0.00 0.09 0.00 66 1005.4
20260509173041 67 285 5.0 17.0 0.00 0.09 0.00 67 1005.4
20260509171536 67 271 4.0 17.0 0.00 0.09 0.00 67 1005.4
20260509170048 67 219 5.0 13.0 0.00 0.09 0.00 68 1005.6
20260509164537 66 311 3.0 12.0 0.00 0.09 0.00 70 1005.7
20260509163036 66 171 4.0 13.0 0.00 0.09 0.00 70 1005.7
20260509161534 65 266 5.0 14.0 0.00 0.09 0.00 68 1005.8
20260509160031 64 229 3.0 10.0 0.00 0.09 0.00 70 1005.6
20260509154535 64 270 2.0 9.0 0.00 0.09 0.00 72 1006.2
20260509153035 62 173 3.0 8.0 0.00 0.09 0.00 76 1006.3
20260509151538 62 282 5.0 12.0 0.00 0.09 0.00 74 1006.7
20260509150035 61 283 4.0 13.0 0.00 0.09 0.00 78 1006.7
20260509144533 61 264 3.0 10.0 0.00 0.09 0.00 79 1006.4
20260509143039 60 189 4.0 11.0 0.00 0.09 0.00 82 1006.4
20260509141543 59 309 2.0 6.0 0.00 0.09 0.00 84 1006.5
20260509140033 59 259 2.0 7.0 0.00 0.09 0.00 87 1006.2
20260509134533 58 237 1.0 6.0 0.00 0.09 0.00 90 1006.5
20260509133054 56 250 3.0 7.0 0.00 0.09 0.00 90 1007.0
20260509131534 56 263 2.0 7.0 0.00 0.09 0.00 91 1007.0
20260509130038 56 269 2.0 7.0 0.00 0.09 0.00 92 1006.8
20260509124535 55 55 0.0 7.0 0.00 0.09 0.00 93 1006.8
20260509123036 54 237 1.0 5.0 0.00 0.09 0.00 93 1006.9
20260509121532 54 250 1.0 4.0 0.00 0.09 0.00 94 1007.1
20260509120032 54 248 1.0 3.0 0.00 0.09 0.00 94 1007.2
20260509114536 53 225 3.0 6.0 0.00 0.09 0.00 94 1007.2
20260509113038 52 0 0.0 3.0 0.00 0.09 0.00 94 1007.2
20260509111535 52 0 0.0 2.0 0.00 0.09 0.00 94 1007.0
20260509110036 52 0 0.0 3.0 0.00 0.09 0.00 94 1006.9
20260509104539 51 221 0.0 1.0 0.00 0.09 0.00 93 1006.8
20260509103034 52 188 0.0 2.0 0.00 0.09 0.00 93 1006.7
20260509101537 51 231 0.0 4.0 0.00 0.09 0.00 93 1006.8
20260509100035 51 0 1.0 2.0 0.00 0.09 0.00 93 1006.8
20260509094537 51 157 0.0 1.0 0.00 0.09 0.00 93 1007.0
20260509093036 51 222 0.0 3.0 0.00 0.09 0.00 93 1007.1
20260509091603 51 0 0.0 1.0 0.00 0.09 0.00 93 1007.0
20260509090048 51 132 0.0 3.0 0.00 0.09 0.00 93 1007.1
20260509084537 52 0 0.0 1.0 0.00 0.09 0.00 93 1007.3
20260509083035 52 0 0.0 1.0 0.00 0.09 0.00 92 1007.4
20260509081547 52 162 0.0 2.0 0.00 0.09 0.00 92 1007.4
20260509080039 53 0 1.0 3.0 0.00 0.09 0.00 92 1007.5
20260509074536 53 0 0.0 3.0 0.00 0.09 0.00 92 1007.5
20260509073044 53 221 0.0 5.0 0.00 0.09 0.00 92 1007.5
20260509071545 53 228 1.0 4.0 0.00 0.09 0.00 93 1007.6
20260509070042 53 0 1.0 6.0 0.00 0.09 0.00 93 1007.5
20260509064533 53 227 1.0 4.0 0.00 0.09 0.00 93 1007.9
20260509063057 53 215 1.0 4.0 0.00 0.09 0.00 92 1008.0
20260509061601 52 0 0.0 4.0 0.00 0.09 0.00 92 1008.0
20260509060051 52 0 0.0 4.0 0.00 0.09 0.00 92 1008.3
20260509054535 52 0 1.0 4.0 0.00 0.09 0.00 92 1008.4
20260509053035 52 150 1.0 3.0 0.00 0.09 0.00 92 1008.4
20260509051534 52 224 1.0 6.0 0.00 0.09 0.00 92 1008.4
20260509050037 52 86 1.0 4.0 0.00 0.09 0.00 92 1008.6
20260509044535 52 0 0.0 5.0 0.00 0.09 0.00 91 1008.7
20260509043039 52 162 0.0 2.0 0.00 0.09 0.00 91 1008.7
20260509041532 52 144 0.0 3.0 0.01 0.09 0.00 91 1008.9
20260509040032 52 232 1.0 4.0 0.02 0.09 0.00 91 1009.1
20260509034536 52 215 0.0 5.0 0.02 0.09 0.09 91 1009.3
20260509033036 53 204 2.0 8.0 0.02 0.09 0.09 90 1009.4
20260509031538 53 219 1.0 8.0 0.01 0.08 0.08 90 1009.4